TimeAKST,TemperatureF,Dew PointF,Humidity,Sea Level PressureIn,VisibilityMPH,Wind Direction,Wind SpeedMPH,Gust SpeedMPH,PrecipitationIn,Events,Conditions,WindDirDegrees,DateUTC
12:16 AM,-7.6,-29.2,34,29.13,9.0,Calm,Calm,-,N/A,,Overcast,0,2013-11-14 09:16:00
12:36 AM,-5.8,-25.6,38,29.13,5.0,Calm,Calm,-,N/A,,Overcast,0,2013-11-14 09:36:00
12:56 AM,-5.8,-16.6,60,29.12,7.0,Calm,Calm,-,N/A,,Overcast,0,2013-11-14 09:56:00
1:16 AM,-5.8,-14.8,65,29.12,10.0,Calm,Calm,-,N/A,,Overcast,0,2013-11-14 10:16:00
1:36 AM,-5.8,-7.6,92,29.11,10.0,Calm,Calm,-,N/A,,Overcast,0,2013-11-14 10:36:00
1:56 AM,-5.8,-16.6,60,29.12,3.0,Calm,Calm,-,N/A,,Overcast,0,2013-11-14 10:56:00
2:16 AM,-5.8,-9999,N/A,29.13,10.0,Calm,Calm,-,N/A,,Overcast,0,2013-11-14 11:16:00
2:36 AM,-5.8,-25.6,38,29.13,10.0,Calm,Calm,-,N/A,,Mostly Cloudy,0,2013-11-14 11:36:00
2:56 AM,-5.8,-22.0,46,29.14,10.0,Calm,Calm,-,N/A,,Partly Cloudy,0,2013-11-14 11:56:00
3:16 AM,-5.8,-23.8,42,29.13,10.0,Calm,Calm,-,N/A,,Clear,0,2013-11-14 12:16:00
3:36 AM,-5.8,-23.8,42,29.14,10.0,Calm,Calm,-,N/A,,Clear,0,2013-11-14 12:36:00
3:56 AM,-5.8,-20.2,50,29.15,10.0,Calm,Calm,-,N/A,,Clear,0,2013-11-14 12:56:00
4:16 AM,-5.8,-5.8,100,29.15,10.0,Calm,Calm,-,N/A,,Clear,0,2013-11-14 13:16:00
4:36 AM,-5.8,-23.8,42,29.15,10.0,Calm,Calm,-,N/A,,Clear,0,2013-11-14 13:36:00
4:56 AM,-5.8,-9999,N/A,29.15,10.0,Calm,Calm,-,N/A,,Clear,0,2013-11-14 13:56:00
5:16 AM,-5.8,-9999,N/A,29.15,10.0,Calm,Calm,-,N/A,,Clear,0,2013-11-14 14:16:00
5:36 AM,-7.6,-9999,N/A,29.16,10.0,Calm,Calm,-,N/A,,Clear,0,2013-11-14 14:36:00
5:56 AM,-7.6,-27.4,38,29.17,10.0,Calm,Calm,-,N/A,,Clear,0,2013-11-14 14:56:00
6:16 AM,-5.8,-23.8,42,29.18,10.0,Calm,Calm,-,N/A,,Clear,0,2013-11-14 15:16:00
6:36 AM,-5.8,-18.4,55,29.20,10.0,NE,4.6,-,N/A,,Scattered Clouds,40,2013-11-14 15:36:00
6:56 AM,-5.8,-5.8,100,29.21,10.0,ESE,5.8,-,N/A,,Overcast,110,2013-11-14 15:56:00
7:16 AM,-5.8,-9999,N/A,29.22,10.0,Calm,Calm,-,N/A,,Partly Cloudy,0,2013-11-14 16:16:00
7:36 AM,-4.0,-22.0,42,29.22,10.0,WSW,6.9,-,N/A,,Clear,240,2013-11-14 16:36:00
7:56 AM,-2.2,-14.8,55,29.24,10.0,SW,3.5,-,N/A,,Partly Cloudy,220,2013-11-14 16:56:00
8:16 AM,-2.2,-14.8,55,29.24,10.0,West,5.8,-,N/A,,Scattered Clouds,260,2013-11-14 17:16:00
8:36 AM,-0.4,-7.6,72,29.25,10.0,Calm,Calm,-,N/A,,Partly Cloudy,0,2013-11-14 17:36:00
8:56 AM,8.6,-16.6,31,29.26,10.0,West,15.0,-,N/A,,Clear,270,2013-11-14 17:56:00
9:16 AM,17.6,14.0,86,29.28,10.0,WNW,16.1,21.9,N/A,,Clear,290,2013-11-14 18:16:00
9:36 AM,19.4,6.8,58,29.29,10.0,West,10.4,16.1,N/A,,Clear,280,2013-11-14 18:36:00
9:56 AM,19.4,5.0,54,29.29,10.0,WNW,12.7,-,N/A,,Clear,290,2013-11-14 18:56:00
10:16 AM,19.4,5.0,54,29.30,10.0,West,15.0,19.6,N/A,,Clear,280,2013-11-14 19:16:00
10:36 AM,19.4,5.0,54,29.31,10.0,West,12.7,-,N/A,,Clear,280,2013-11-14 19:36:00
10:56 AM,19.4,3.2,49,29.32,10.0,West,12.7,-,N/A,,Clear,270,2013-11-14 19:56:00
11:16 AM,19.4,3.2,49,29.33,10.0,West,15.0,-,N/A,,Clear,270,2013-11-14 20:16:00
11:36 AM,19.4,3.2,49,29.33,10.0,WNW,19.6,28.8,N/A,,Clear,290,2013-11-14 20:36:00
11:56 AM,19.4,3.2,49,29.34,10.0,West,13.8,26.5,N/A,,Clear,280,2013-11-14 20:56:00
12:16 PM,19.4,3.2,49,29.35,10.0,West,9.2,-,N/A,,Partly Cloudy,280,2013-11-14 21:16:00
12:36 PM,17.6,3.2,53,29.35,10.0,West,9.2,-,N/A,,Partly Cloudy,260,2013-11-14 21:36:00
12:56 PM,17.6,3.2,53,29.36,10.0,West,10.4,-,N/A,,Partly Cloudy,260,2013-11-14 21:56:00
1:16 PM,17.6,3.2,53,29.36,10.0,West,12.7,-,N/A,,Clear,270,2013-11-14 22:16:00
1:36 PM,17.6,3.2,53,29.37,10.0,West,12.7,17.3,N/A,,Clear,280,2013-11-14 22:36:00
1:56 PM,17.6,-0.4,45,29.37,10.0,WNW,17.3,25.3,N/A,,Partly Cloudy,290,2013-11-14 22:56:00
2:16 PM,17.6,1.4,49,29.38,10.0,West,19.6,28.8,N/A,,Clear,280,2013-11-14 23:16:00
2:36 PM,17.6,-0.4,45,29.39,1.5,WNW,19.6,36.8,N/A,,Clear,300,2013-11-14 23:36:00
2:56 PM,15.8,1.4,53,29.40,10.0,West,9.2,-,N/A,,Clear,280,2013-11-14 23:56:00
3:16 PM,14.0,3.2,62,29.40,10.0,West,11.5,-,N/A,,Clear,260,2013-11-15 00:16:00
3:36 PM,12.2,3.2,67,29.39,10.0,WSW,13.8,-,N/A,,Scattered Clouds,240,2013-11-15 00:36:00
3:56 PM,12.2,5.0,73,29.39,10.0,WSW,11.5,-,N/A,,Mostly Cloudy,250,2013-11-15 00:56:00
4:16 PM,12.2,5.0,73,29.40,10.0,West,12.7,-,N/A,,Overcast,260,2013-11-15 01:16:00
4:36 PM,15.8,3.2,58,29.40,10.0,West,10.4,-,N/A,,Overcast,260,2013-11-15 01:36:00
4:56 PM,15.8,5.0,62,29.41,10.0,West,12.7,21.9,N/A,,Overcast,260,2013-11-15 01:56:00
5:16 PM,15.8,8.6,73,29.42,9.0,West,13.8,-,N/A,,Overcast,260,2013-11-15 02:16:00
5:36 PM,15.8,8.6,73,29.44,8.0,West,11.5,17.3,N/A,,Mostly Cloudy,260,2013-11-15 02:36:00
5:56 PM,15.8,8.6,73,29.44,5.0,West,13.8,-,N/A,,Mostly Cloudy,260,2013-11-15 02:56:00
6:16 PM,15.8,8.6,73,29.46,5.0,WSW,12.7,-,N/A,,Mostly Cloudy,250,2013-11-15 03:16:00
6:36 PM,15.8,8.6,73,29.47,3.0,West,21.9,27.6,N/A,,Mostly Cloudy,270,2013-11-15 03:36:00
6:56 PM,15.8,6.8,68,29.49,10.0,West,17.3,23.0,N/A,,Mostly Cloudy,280,2013-11-15 03:56:00
7:16 PM,15.8,6.8,68,29.51,8.0,West,16.1,-,N/A,,Scattered Clouds,280,2013-11-15 04:16:00
7:36 PM,15.8,3.2,58,29.53,9.0,West,18.4,28.8,N/A,,Partly Cloudy,270,2013-11-15 04:36:00
7:56 PM,14.0,3.2,62,29.54,10.0,WNW,17.3,25.3,N/A,,Clear,290,2013-11-15 04:56:00
8:16 PM,14.0,-0.4,53,29.56,10.0,West,18.4,26.5,N/A,,Clear,280,2013-11-15 05:16:00
8:36 PM,12.2,1.4,62,29.58,10.0,WNW,16.1,26.5,N/A,,Clear,290,2013-11-15 05:36:00
8:56 PM,12.2,1.4,62,29.61,10.0,West,12.7,18.4,N/A,,Clear,280,2013-11-15 05:56:00
9:16 PM,12.2,-5.8,45,29.62,10.0,West,18.4,21.9,N/A,,Clear,270,2013-11-15 06:16:00
9:56 PM,10.4,-0.4,62,29.65,10.0,WSW,15.0,21.9,N/A,,Clear,250,2013-11-15 06:56:00
10:16 PM,10.4,-0.4,62,29.67,10.0,WNW,12.7,-,N/A,,Clear,290,2013-11-15 07:16:00
10:36 PM,10.4,-0.4,62,29.68,10.0,West,16.1,-,N/A,,Clear,280,2013-11-15 07:36:00
10:56 PM,10.4,-5.8,48,29.69,10.0,WNW,17.3,27.6,N/A,,Clear,300,2013-11-15 07:56:00
11:16 PM,10.4,-5.8,48,29.70,10.0,WNW,20.7,-,N/A,,Clear,300,2013-11-15 08:16:00
11:36 PM,10.4,-7.6,44,29.71,10.0,NW,17.3,26.5,N/A,,Clear,310,2013-11-15 08:36:00
11:56 PM,10.4,-7.6,44,29.72,10.0,WNW,17.3,23.0,N/A,,Clear,300,2013-11-15 08:56:00